Flag for Bahrain Weather past 2 weeks in Riffa, Bahrain

Now
68 °F

Clear.


Feels Like: 68 °F
Forecast: 68 / 76 °F
Wind: 7 mph from Southeast

Location: Bahrain International Airport

Current Time: Dec 20, 2014 at 11:59:32 PM

Latest Report: Dec 20, 2014 at 11:00 PM


Visibility: 10 mi

Pressure: 30.04 "Hg

Humidity: 49%

Dew point: 48 °F

Location of RiffaLocation

Historic Weather in Riffa — Graph

°F

Riffa temperature yesterday

Maximum temperature yesterday: 70 °F (at 1:00 PM)
Minimum temperature yesterday: 63 °F (at 5:00 AM)
Average temperature yesterday: 66 °F

Past Weeks' High & Low Weather Summary

 TemperatureHumidityPressure
High79 °F (Dec 15, 1:00 PM)88% (Dec 10, 5:00 AM)30.24 "Hg (Dec 10, 5:00 AM)
Low59 °F (Dec 20, 6:00 AM)28% (Dec 15, 1:30 PM)30.04 "Hg (Dec 11, 2:00 PM)
Average70 °F67%30.12 "Hg
* Reported Dec 5 10:00 PM — Dec 20 10:00 PM, Riffa, Weather by CustomWeather, © 2014

Note: Actual official high and low records may vary slightly from our data, if they occured in-between our weather recording intervals... More about our weather records

Advertising

Riffa weather history for previous 24 hours

 ConditionsComfort  
Time TempWeatherWind HumidityBarometerVisibility
10:00 PM
Dec 20
68 °FClear.9 mph56%30.07 "Hg10 mi
9:00 PM68 °FClear.8 mph49%30.07 "Hg10 mi
8:00 PM68 °FClear.7 mph43%30.07 "Hg10 mi
7:00 PM68 °FClear.5 mph56%30.07 "Hg10 mi
6:00 PM68 °FClear.6 mph53%30.07 "Hg10 mi
5:00 PM68 °FClear.7 mph56%30.07 "Hg10 mi
4:00 PM70 °FSunny.9 mph57%30.07 "Hg10 mi
3:00 PM72 °FPassing clouds.6 mph53%30.07 "HgN/A
2:00 PM72 °FPassing clouds.7 mph53%30.07 "HgN/A
1:00 PM72 °FPassing clouds.6 mph53%30.09 "HgN/A
12:00 PM72 °FPassing clouds.7 mph44%30.12 "HgN/A
11:00 AM70 °FPassing clouds.7 mph50%30.15 "HgN/A
10:00 AM70 °FPassing clouds.7 mph50%30.18 "HgN/A
9:00 AM68 °FPassing clouds.5 mph53%30.21 "HgN/A
8:00 AM66 °FSunny.2 mph56%30.18 "Hg10 mi
7:00 AM63 °FClear.1 mph64%30.18 "Hg4 mi
6:00 AM59 °FClear.1 mph77%30.15 "Hg4 mi
5:00 AM63 °FClear.3 mph73%30.15 "Hg4 mi
4:00 AM63 °FClear.2 mph68%30.12 "Hg4 mi
3:00 AM64 °FClear.3 mph68%30.12 "Hg4 mi
2:00 AM64 °FClear.1 mph68%30.15 "Hg4 mi
1:00 AM64 °FMild.2 mph68%30.15 "Hg4 mi
12:00 AM66 °FMild.2 mph64%30.15 "Hg4 mi
11:00 PM
Dec 19
66 °FClear.2 mph64%30.18 "Hg4 mi
Weather by CustomWeather, © 2014

See weather overviewHow to use our weather pages